When you browse on this site, cookies collect data to enhance your experience and personalize the content and advertising you see.
Visit our Privacy Policy to learn more. By continuing to use the site, you agree to this use of cookies and data.
  • In Latvia
  • List of Countries
  • For 7 days
  • Water Temperature
  • Weather Map
  • Weather Widgets
  • user-avatar
    Login

    Hourly Weather Punta Cana

    Today, 26 May, Tuesday

    Time Temperature Precipitation Wind Pressure Humidity
    00:00 +28°C° 0.1 mm 3 mps 761 mmHg 87%
    01:00 +27°C° 0 mm 2 mps 761 mmHg 89%
    02:00 +27°C° 0.5 mm 3 mps 761 mmHg 89%
    03:00 +27°C° 0.5 mm 3 mps 761 mmHg 90%
    04:00 +27°C° 0.5 mm 4 mps 761 mmHg 90%
    05:00 +28°C° 0 mm 4 mps 761 mmHg 85%
    06:00 +29°C° 0 mm 4 mps 761 mmHg 79%
    07:00 +30°C° 0 mm 4 mps 762 mmHg 75%
    08:00 +32°C° 0 mm 4 mps 762 mmHg 70%
    09:00 +33°C° 0 mm 5 mps 762 mmHg 65%
    10:00 +34°C° 0 mm 5 mps 762 mmHg 61%
    11:00 +34°C° 0.1 mm 5 mps 762 mmHg 60%
    12:00 +34°C° 0.1 mm 4 mps 761 mmHg 60%
    13:00 +35°C° 0.1 mm 4 mps 761 mmHg 60%
    14:00 +34°C° 0 mm 4 mps 761 mmHg 61%
    15:00 +33°C° 0 mm 4 mps 760 mmHg 63%
    16:00 +33°C° 0 mm 4 mps 760 mmHg 65%
    17:00 +32°C° 0 mm 4 mps 760 mmHg 70%
    18:00 +29°C° 0 mm 3 mps 761 mmHg 76%
    19:00 +28°C° 0 mm 2 mps 761 mmHg 82%
    20:00 +28°C° 0.1 mm 2 mps 761 mmHg 83%
    21:00 +28°C° 0.1 mm 2 mps 762 mmHg 84%
    22:00 +28°C° 0.1 mm 2 mps 762 mmHg 85%
    23:00 +27°C° 1.3 mm 2 mps 761 mmHg 86%

    Tomorrow, 27 May, Wednesday

    Time Temperature Precipitation Wind Pressure Humidity
    00:00 +27°C° 1.3 mm 2 mps 761 mmHg 87%
    01:00 +27°C° 1.3 mm 2 mps 761 mmHg 88%
    02:00 +27°C° 0.6 mm 2 mps 761 mmHg 88%
    03:00 +27°C° 0.6 mm 3 mps 761 mmHg 89%
    04:00 +27°C° 0.6 mm 3 mps 761 mmHg 89%
    05:00 +28°C° 0.7 mm 3 mps 761 mmHg 86%
    06:00 +28°C° 0.7 mm 3 mps 761 mmHg 82%
    07:00 +29°C° 0.7 mm 2 mps 762 mmHg 78%
    08:00 +31°C° 0.1 mm 3 mps 762 mmHg 70%
    09:00 +33°C° 0.1 mm 3 mps 762 mmHg 63%
    10:00 +34°C° 0.1 mm 3 mps 762 mmHg 55%
    11:00 +35°C° 0 mm 3 mps 762 mmHg 53%
    12:00 +35°C° 0 mm 3 mps 761 mmHg 51%
    13:00 +35°C° 0 mm 4 mps 761 mmHg 50%
    14:00 +35°C° 0 mm 3 mps 761 mmHg 53%
    15:00 +34°C° 0 mm 3 mps 760 mmHg 56%
    16:00 +33°C° 0 mm 3 mps 760 mmHg 60%
    17:00 +31°C° 0 mm 3 mps 760 mmHg 66%
    18:00 +30°C° 0 mm 3 mps 761 mmHg 72%
    19:00 +29°C° 0 mm 3 mps 761 mmHg 78%
    20:00 +28°C° 0 mm 3 mps 761 mmHg 79%
    21:00 +28°C° 0 mm 3 mps 762 mmHg 80%
    22:00 +28°C° 0 mm 3 mps 762 mmHg 81%
    23:00 +27°C° 0 mm 2 mps 761 mmHg 83%

    Day after tomorrow, 28 May, Thursday

    Time Temperature Precipitation Wind Pressure Humidity
    00:00 +27°C° 0 mm 2 mps 761 mmHg 85%
    01:00 +27°C° 0 mm 2 mps 760 mmHg 86%
    02:00 +27°C° 0.9 mm 2 mps 760 mmHg 87%
    03:00 +27°C° 0.9 mm 2 mps 760 mmHg 88%
    04:00 +26°C° 0.9 mm 2 mps 760 mmHg 89%
    05:00 +27°C° 0.2 mm 1 mps 761 mmHg 84%
    06:00 +28°C° 0.2 mm 1 mps 761 mmHg 80%
    07:00 +29°C° 0.2 mm 1 mps 761 mmHg 75%
    08:00 +31°C° 0 mm 2 mps 761 mmHg 68%
    09:00 +32°C° 0 mm 2 mps 761 mmHg 60%
    10:00 +34°C° 0 mm 3 mps 762 mmHg 53%
    11:00 +34°C° 0 mm 3 mps 761 mmHg 53%
    12:00 +35°C° 0 mm 3 mps 761 mmHg 52%
    13:00 +35°C° 0 mm 4 mps 760 mmHg 52%
    14:00 +34°C° 0.1 mm 4 mps 760 mmHg 55%
    15:00 +33°C° 0.1 mm 5 mps 760 mmHg 58%
    16:00 +33°C° 0.1 mm 6 mps 760 mmHg 61%
    17:00 +32°C° 0.2 mm 6 mps 760 mmHg 67%
    18:00 +29°C° 0.2 mm 6 mps 760 mmHg 73%
    19:00 +28°C° 0.2 mm 5 mps 761 mmHg 79%
    20:00 +28°C° 0 mm 5 mps 761 mmHg 79%
    21:00 +28°C° 0 mm 5 mps 761 mmHg 79%
    22:00 +28°C° 0 mm 5 mps 761 mmHg 79%
    23:00 +28°C° 0.6 mm 5 mps 761 mmHg 80%

    29 May, Friday

    Time Temperature Precipitation Wind Pressure Humidity
    00:00 +28°C° 0.6 mm 5 mps 761 mmHg 81%
    01:00 +27°C° 0.6 mm 4 mps 760 mmHg 82%
    02:00 +28°C° 0.5 mm 4 mps 760 mmHg 80%
    03:00 +28°C° 0.5 mm 4 mps 760 mmHg 79%
    04:00 +28°C° 0.5 mm 4 mps 760 mmHg 78%
    05:00 +28°C° 0.1 mm 4 mps 761 mmHg 75%
    06:00 +29°C° 0.1 mm 4 mps 761 mmHg 72%
    07:00 +30°C° 0.1 mm 4 mps 761 mmHg 69%
    08:00 +30°C° 1.3 mm 4 mps 762 mmHg 67%
    09:00 +31°C° 1.3 mm 3 mps 762 mmHg 65%
    10:00 +31°C° 1.3 mm 3 mps 762 mmHg 62%
    11:00 +31°C° 0.6 mm 3 mps 762 mmHg 64%
    12:00 +32°C° 0.6 mm 4 mps 761 mmHg 65%
    13:00 +30°C° 0.6 mm 4 mps 761 mmHg 66%
    14:00 +30°C° 0 mm 3 mps 761 mmHg 68%
    15:00 +30°C° 0 mm 3 mps 760 mmHg 69%
    16:00 +29°C° 0 mm 3 mps 760 mmHg 71%
    17:00 +29°C° 0.1 mm 3 mps 760 mmHg 74%
    18:00 +28°C° 0.1 mm 3 mps 761 mmHg 78%
    19:00 +28°C° 0.1 mm 3 mps 761 mmHg 81%
    20:00 +28°C° 0.2 mm 3 mps 761 mmHg 83%
    21:00 +27°C° 0.2 mm 3 mps 762 mmHg 84%
    22:00 +27°C° 0.2 mm 3 mps 762 mmHg 86%
    23:00 +27°C° 0.6 mm 3 mps 762 mmHg 87%

    30 May, Saturday

    Time Temperature Precipitation Wind Pressure Humidity
    00:00 +27°C° 0.6 mm 3 mps 761 mmHg 87%
    01:00 +27°C° 0.6 mm 3 mps 761 mmHg 88%
    02:00 +27°C° 1.3 mm 3 mps 761 mmHg 88%
    03:00 +27°C° 1.3 mm 3 mps 761 mmHg 88%
    04:00 +27°C° 1.3 mm 3 mps 761 mmHg 88%
    05:00 +27°C° 1.3 mm 3 mps 761 mmHg 87%
    06:00 +28°C° 1.3 mm 3 mps 762 mmHg 86%
    07:00 +28°C° 1.3 mm 4 mps 762 mmHg 85%
    08:00 +29°C° 0.4 mm 4 mps 762 mmHg 82%
    09:00 +30°C° 0.4 mm 4 mps 762 mmHg 78%
    10:00 +30°C° 0.4 mm 5 mps 763 mmHg 74%
    11:00 +30°C° 0.2 mm 5 mps 762 mmHg 74%
    12:00 +30°C° 0.2 mm 4 mps 762 mmHg 74%
    13:00 +30°C° 0.2 mm 4 mps 761 mmHg 74%
    14:00 +32°C° 0.1 mm 4 mps 761 mmHg 72%
    15:00 +31°C° 0.1 mm 3 mps 761 mmHg 70%
    16:00 +31°C° 0.1 mm 3 mps 760 mmHg 69%
    17:00 +30°C° 0 mm 3 mps 761 mmHg 75%
    18:00 +29°C° 0 mm 2 mps 761 mmHg 80%
    19:00 +28°C° 0 mm 2 mps 761 mmHg 86%
    20:00 +27°C° 0 mm 2 mps 762 mmHg 87%
    21:00 +27°C° 0 mm 2 mps 762 mmHg 88%
    22:00 +27°C° 0 mm 2 mps 763 mmHg 89%
    23:00 +27°C° 0.1 mm 2 mps 762 mmHg 88%

    31 May, Sunday

    Time Temperature Precipitation Wind Pressure Humidity
    00:00 +27°C° 0.1 mm 2 mps 762 mmHg 88%
    01:00 +27°C° 0.1 mm 2 mps 761 mmHg 88%
    02:00 +27°C° 0.1 mm 2 mps 761 mmHg 88%
    03:00 +27°C° 0.1 mm 2 mps 761 mmHg 89%
    04:00 +27°C° 0.1 mm 2 mps 762 mmHg 89%
    05:00 +27°C° 0 mm 3 mps 762 mmHg 86%
    06:00 +28°C° 0 mm 3 mps 762 mmHg 83%
    07:00 +29°C° 0 mm 3 mps 762 mmHg 79%
    08:00 +30°C° 0 mm 3 mps 763 mmHg 73%
    09:00 +33°C° 0 mm 3 mps 763 mmHg 66%
    10:00 +34°C° 0 mm 3 mps 763 mmHg 60%
    11:00 +34°C° 0 mm 3 mps 763 mmHg 60%
    12:00 +34°C° 0 mm 3 mps 762 mmHg 60%
    13:00 +34°C° 0 mm 3 mps 762 mmHg 60%
    14:00 +33°C° 0 mm 3 mps 762 mmHg 62%
    15:00 +33°C° 0 mm 3 mps 761 mmHg 64%
    16:00 +31°C° 0 mm 3 mps 761 mmHg 66%
    17:00 +30°C° 0 mm 3 mps 761 mmHg 71%
    18:00 +29°C° 0 mm 3 mps 761 mmHg 76%
    19:00 +28°C° 0 mm 3 mps 762 mmHg 81%
    20:00 +28°C° 0 mm 3 mps 762 mmHg 82%
    21:00 +28°C° 0 mm 3 mps 762 mmHg 84%
    22:00 +28°C° 0 mm 2 mps 762 mmHg 86%
    23:00 +27°C° 0.1 mm 2 mps 762 mmHg 86%
    Show more